Weather History for KFMN - July, 2014

Change the Weather History Date:

Wednesday, July 9, 2014

  Actual Average Record
Temperature  
Mean Temperature 76 °F -  
Max Temperature 91 °F 91 °F 100 °F (1989)
Min Temperature 60 °F 59 °F 52 °F (1983)
Cooling Degree Days 10    
Growing Degree Days 26 (Base 50)    
Moisture  
Dew Point 49 °F    
Average Humidity 43    
Maximum Humidity 72    
Minimum Humidity 10    
Precipitation  
Precipitation 0.00 in - - ()
Sea Level Pressure  
Sea Level Pressure 30.01 in    
Wind  
Wind Speed 9 mph (East)    
Max Wind Speed 18 mph    
Max Gust Speed 30 mph    
Visibility 10 miles    
Events      
Averages and records for this station are not official NWS values.
T = Trace of Precipitation, MM = Missing Value Source: NWS Daily Summary

Daily Weather History Graph

Daily Weather History Graph

Search for Another Location

Airport or City:

Trip Planner

Search our weather history database for the weather conditions in past years. The results will help you decide how hot, cold, wet, or windy it might be!

Date:

Astronomy

Jul. 09, 2014 Rise Set
Actual Time 6:01 AM MDT 8:34 PM MDT
Civil Twilight 5:31 AM MDT 9:04 PM MDT
Nautical Twilight 4:54 AM MDT 9:41 PM MDT
Astronomical Twilight 4:12 AM MDT 10:23 PM MDT
Moon 5:50 PM MDT (7/9) 3:20 AM MDT (7/9)
Length of Visible Light 15h 32m
Length of Day
14h 32m
Waxing Gibbous, 90% of the Moon is Illuminated
Jul 9
Waxing Gibbous
Jul 12
Full
Jul 18
Last Quarter
Jul 26
New
Aug 3
First Quarter

Hourly Weather History & Observations

Time (MDT) Temp. Dew Point Humidity Pressure Visibility Wind Dir Wind Speed Gust Speed Precip Events Conditions
12:53 AM 64.0 °F 54.0 °F 70% 30.09 in 10.0 mi ENE 10.4 mph - N/A   Clear
1:53 AM 64.0 °F 53.1 °F 67% 30.09 in 10.0 mi East 9.2 mph - N/A   Clear
2:53 AM 63.0 °F 52.0 °F 67% 30.05 in 10.0 mi East 5.8 mph - N/A   Clear
3:53 AM 63.0 °F 51.1 °F 65% 30.05 in 10.0 mi ENE 9.2 mph - N/A   Clear
4:53 AM 61.0 °F 51.1 °F 70% 30.06 in 10.0 mi East 6.9 mph - N/A   Clear
5:53 AM 61.0 °F 52.0 °F 72% 30.09 in 10.0 mi East 8.1 mph - N/A   Clear
6:53 AM 62.1 °F 52.0 °F 70% 30.11 in 10.0 mi East 5.8 mph - N/A   Clear
7:53 AM 66.0 °F 52.0 °F 60% 30.11 in 10.0 mi East 8.1 mph - N/A   Clear
8:53 AM 69.1 °F 53.1 °F 57% 30.10 in 10.0 mi ESE 8.1 mph - N/A   Clear
9:53 AM 73.9 °F 52.0 °F 46% 30.08 in 10.0 mi ESE 9.2 mph - N/A   Clear
10:53 AM 77.0 °F 48.9 °F 37% 30.06 in 10.0 mi East 5.8 mph - N/A   Clear
11:53 AM 80.1 °F 48.0 °F 32% 30.04 in 10.0 mi South 3.5 mph - N/A   Clear
12:53 PM 82.9 °F 48.0 °F 29% 30.00 in 10.0 mi Calm Calm - N/A   Clear
1:53 PM 84.9 °F 46.9 °F 27% 29.95 in 10.0 mi Calm Calm - N/A   Clear
2:53 PM 88.0 °F 45.0 °F 22% 29.91 in 10.0 mi Variable 5.8 mph - N/A   Clear
3:53 PM 90.0 °F 44.1 °F 20% 29.88 in 10.0 mi West 10.4 mph - N/A   Clear
4:53 PM 90.0 °F 43.0 °F 19% 29.87 in 10.0 mi WSW 10.4 mph - N/A   Clear
6:26 PM 84.0 °F 44.1 °F 25% 30.06 in 10.0 mi NE 18.4 mph 29.9 mph N/A   Scattered Clouds
6:53 PM 82.0 °F 46.0 °F 28% 29.92 in 10.0 mi East 18.4 mph 26.5 mph N/A   Mostly Cloudy
7:53 PM 77.0 °F 48.0 °F 36% 29.93 in 10.0 mi East 17.3 mph - N/A   Clear
8:53 PM 75.0 °F 50.0 °F 41% 29.94 in 10.0 mi East 12.7 mph - N/A   Clear
9:53 PM 73.0 °F 51.1 °F 46% 29.97 in 10.0 mi ESE 15.0 mph - N/A   Partly Cloudy
10:53 PM 72.0 °F 52.0 °F 49% 29.98 in 10.0 mi ESE 11.5 mph - N/A   Scattered Clouds
11:53 PM 71.1 °F 52.0 °F 51% 29.99 in 10.0 mi ESE 10.4 mph - N/A   Clear